This is the latest recevied weather packets stored in our database for station/object KH6DH-13. If no packets are shown the sender has not sent any weather packets the latest 10 day(s).
| Time | Temp. | Humidity | Pressure | Rain* | Wind** | Luminosity | Snow |
|---|---|---|---|---|---|---|---|
| 1778195932 | 28.89° C | - | - | 0 mm | 1.79 m/s, 60° | - | - |
| 1778195331 | 28.89° C | - | - | 0 mm | 2.68 m/s, 359° | - | - |
| 1778194730 | 28.89° C | - | - | 0 mm | 1.79 m/s, 221° | - | - |
| 1778194129 | 28.89° C | - | - | 0 mm | 3.13 m/s, 69° | - | - |
| 1778193528 | 28.89° C | - | - | 0 mm | 2.68 m/s, 103° | - | - |
| 1778192927 | 28.89° C | - | - | 0 mm | 3.13 m/s, 46° | - | - |
| 1778192326 | 28.89° C | - | - | 0 mm | 2.24 m/s, 131° | - | - |
| 1778191725 | 28.89° C | - | - | 0 mm | 1.79 m/s, 96° | - | - |
| 1778191124 | 28.89° C | - | - | 0 mm | 4.02 m/s, 35° | - | - |
| 1778190523 | 28.33° C | - | - | 0 mm | 2.24 m/s, 6° | - | - |
| 1778189922 | 27.78° C | - | - | 0 mm | 1.34 m/s, 62° | - | - |
| 1778189321 | 28.33° C | - | - | 0 mm | 1.34 m/s, 84° | - | - |
| 1778188720 | 27.78° C | - | - | 0 mm | 1.79 m/s, 84° | - | - |
| 1778188119 | 27.78° C | - | - | 0 mm | 0.45 m/s, 255° | - | - |
| 1778187518 | 27.22° C | - | - | 0 mm | 1.79 m/s, 39° | - | - |
| 1778186917 | 27.22° C | - | - | 0 mm | 0.45 m/s, 13° | - | - |
| 1778186316 | 26.67° C | - | - | 0 mm | 0.89 m/s, 86° | - | - |
| 1778185715 | 26.67° C | - | - | 0 mm | 0.89 m/s, 11° | - | - |
| 1778185114 | 26.67° C | - | - | 0 mm | 0.89 m/s, 32° | - | - |
| 1778184513 | 26.67° C | - | - | 0 mm | 2.24 m/s, 356° | - | - |
| 1778183912 | 26.67° C | - | - | 0 mm | 1.79 m/s, 113° | - | - |
| 1778183311 | 26.11° C | - | - | 0 mm | 0.45 m/s, 338° | - | - |
| 1778182710 | 25.56° C | - | - | 0 mm | 2.24 m/s, 76° | - | - |
| 1778182108 | 25.56° C | - | - | 0 mm | 0.89 m/s, 46° | - | - |
| 1778181507 | 25.56° C | - | - | 0 mm | 0.89 m/s, 72° | - | - |
* Rain latest hour (hover to see other rain measurements)
** Current wind speed in m/s (hover to see current wind gust speed)